Theta_e
287 288 289 288 287 288 288 290 286 289 289 292 295 296 299 298 297 297 298 298 299 300 300 300 300 300 300 302 301 301 301 302 303 300 300 297 295 293 290 292 290 292 289 290
283 286 288 286 288 289 289 290 290 290 290 296 297 298 298 298 297 297 298 298 299 299 299 299 299 299 298 300 299 298 299 299 297 294 291 291 289 288 288 288 288 288 287 288
283 285 286 283 286 288 289 291 291 287 292 296 295 295 296 297 297 296 297 298 298 300 300 300 300 299 298 298 298 296 296 293 291 291 290 289 287 286 286 286 287 286 287 288
280 282 277 288 293 292 290 291 293 293 294 295 296 298 299 297 297 297 297 297 298 300 301 301 301 299 300 298 295 294 293 290 289 289 288 287 286 286 286 286 285 285 286 287
282 282 286 288 287 288 287 288 293 292 294 295 294 294 296 296 297 298 298 297 298 300 300 301 300 299 297 294 293 293 292 291 289 289 288 287 286 286 286 285 285 285 286 286
279 280 277 287 290 292 293 284 295 294 293 294 292 289 294 295 294 295 296 296 296 297 298 299 299 297 293 292 291 291 292 291 290 289 288 287 287 286 285 286 285 285 285 286
283 283 286 289 289 294 284 287 292 293 295 294 291 295 295 294 293 293 294 293 295 296 296 297 295 293 292 291 290 292 291 290 288 288 288 288 287 286 285 285 285 285 284 285
284 282 280 289 288 288 293 292 292 291 291 292 293 292 292 292 291 291 291 292 291 292 292 293 292 291 291 290 292 289 288 287 287 286 287 287 286 285 285 285 284 284 284 283
287 287 290 290 292 290 290 292 292 293 291 292 291 291 291 289 289 289 288 287 287 287 288 289 287 289 289 290 288 287 286 286 286 286 286 286 285 284 284 284 284 283 282 282
288 288 288 288 288 288 289 289 289 290 290 291 289 289 288 288 287 287 285 284 284 285 285 286 285 285 287 287 286 285 285 285 285 285 285 285 286 285 285 284 284 283 283 283
285 285 286 287 289 288 288 288 287 287 287 288 289 287 287 285 285 284 284 283 283 283 284 284 284 284 285 285 285 285 285 285 285 285 284 285 285 285 285 286 286 284 284 283
287 289 289 287 288 289 288 287 287 286 285 284 287 286 285 283 282 282 282 282 283 282 282 282 282 282 282 281 284 285 284 283 284 285 284 284 284 283 285 285 285 286 286 285
289 290 288 287 288 287 286 285 285 285 285 283 281 282 282 282 280 280 280 280 279 279 280 281 280 281 281 281 281 282 285 284 284 283 283 283 283 283 280 281 284 284 284 285
290 289 286 288 285 286 284 282 281 279 279 279 279 278 279 279 278 278 277 276 277 278 277 277 277 279 279 281 282 281 283 282 284 284 283 283 283 283 282 281 279 280 283 283
282 285 289 284 283 281 282 282 281 279 278 277 276 276 276 277 276 275 274 273 276 275 274 273 274 276 276 276 279 282 283 284 283 284 283 283 283 282 282 281 281 281 281 282
280 280 281 280 278 278 279 278 278 276 275 274 273 272 273 273 272 272 272 270 274 272 270 270 272 271 271 273 276 280 281 279 281 283 282 282 281 281 281 280 281 281 279 281
279 277 276 275 275 273 271 271 272 272 270 269 268 269 269 270 270 269 269 268 269 269 269 268 267 269 268 270 272 278 280 281 280 281 281 281 281 281 281 281 280 281 280 281
269 269 269 272 273 270 267 265 265 265 264 264 265 266 265 264 264 264 264 265 268 268 265 264 264 266 267 267 269 274 277 279 280 279 280 280 280 280 280 280 280 280 281 279
263 263 264 263 265 264 263 262 261 261 260 260 262 262 261 260 260 261 262 264 264 267 264 262 266 265 266 266 270 272 273 275 276 277 277 277 277 278 278 279 279 279 278 274
259 260 261 260 259 259 259 257 258 258 256 256 257 259 260 258 257 258 261 262 260 261 260 261 261 264 263 264 265 270 270 271 271 273 273 273 273 274 274 273 274 274 273 271
255 257 257 257 257 255 254 254 255 255 255 254 256 255 254 256 257 256 264 268 261 259 259 260 261 262 263 263 265 267 268 268 269 270 271 272 272 272 272 272 272 271 270 269
253 253 254 254 254 254 253 252 253 254 255 254 253 253 254 258 257 258 256 259 259 258 259 261 261 261 263 263 265 265 265 266 266 267 268 269 269 270 270 270 270 269 269 269
252 252 253 252 251 252 252 252 251 252 252 253 253 254 255 256 257 258 262 259 258 258 260 261 260 262 264 264 263 263 263 263 263 264 265 266 267 268 268 269 269 269 268 268
251 252 252 251 251 253 254 253 251 252 250 251 252 251 253 256 258 257 258 256 255 256 258 259 261 265 261 262 262 262 262 262 262 262 263 262 263 264 265 266 266 267 267 267
249 249 249 251 252 254 251 252 250 253 252 254 254 254 253 254 254 257 255 256 256 257 258 259 261 261 260 260 260 260 261 261 261 261 261 261 262 262 263 263 263 264 265 264
249 250 250 248 250 251 251 250 251 252 252 253 254 255 255 255 254 254 255 255 256 256 257 258 258 258 259 259 259 260 260 260 261 261 260 261 261 261 262 262 262 263 263 263
248 249 250 251 251 250 250 249 250 252 252 250 251 253 254 254 254 254 254 256 256 256 257 257 257 257 258 258 258 259 259 259 259 259 260 260 260 260 260 261 261 261 262 262
Wind_Speed
3 6 11 15 19 22 23 28 17 27 26 19 17 17 16 11 7 8 7 6 7 7 7 9 9 9 8 8 7 7 8 9 9 6 6 6 8 8 8 10 10 11 11 11
1 5 5 7 17 24 29 29 24 29 25 12 11 18 18 17 14 14 11 10 10 9 10 11 10 9 8 9 9 9 10 10 7 8 7 7 8 9 9 9 10 10 10 11
11 4 5 4 26 24 24 29 31 26 33 11 13 12 13 12 11 11 10 11 10 10 8 8 10 11 13 12 10 10 9 7 8 8 9 9 9 10 11 11 12 10 11 12
4 5 12 12 15 18 22 18 23 24 21 5 15 16 12 9 11 9 10 8 9 8 8 8 9 10 9 9 9 9 9 9 9 10 10 10 11 11 11 11 13 12 11 11
7 10 12 13 3 10 12 19 20 24 20 14 5 4 14 12 12 12 5 4 5 7 9 6 7 8 8 8 9 10 11 10 10 11 11 12 13 13 11 11 10 10 10 11
6 15 20 6 14 12 8 26 11 13 16 14 11 9 14 3 2 4 5 4 5 6 6 6 5 7 8 8 9 13 11 12 11 11 12 13 12 12 10 10 10 8 8 8
9 11 6 5 6 17 15 6 5 5 15 11 11 11 3 3 4 2 4 5 7 7 7 7 1 5 7 7 13 9 6 7 9 10 11 12 11 9 9 9 9 8 9 7
6 13 21 8 8 18 7 0 3 1 2 9 5 5 4 5 3 4 7 6 6 6 7 7 3 3 4 8 3 4 7 8 9 9 8 8 12 10 11 11 12 10 10 8
13 9 1 9 3 4 2 2 3 3 2 7 7 4 5 4 4 7 8 6 4 4 5 6 5 2 4 3 5 5 6 7 8 8 8 8 11 10 9 9 9 9 9 8
5 7 5 7 3 2 2 2 2 4 3 3 9 7 7 5 5 5 4 5 4 5 6 6 5 4 3 2 3 5 6 6 6 8 8 7 7 7 9 9 9 9 9 9
1 2 7 1 4 7 7 7 8 6 3 8 9 7 7 5 5 5 4 3 3 5 5 6 7 6 4 2 3 3 4 5 6 6 8 8 8 8 9 10 11 11 11 10
7 11 2 6 10 9 9 8 8 10 7 6 6 8 6 7 5 4 5 5 6 6 5 6 6 6 6 4 2 3 3 4 5 6 7 7 8 7 9 8 13 13 14 12
5 5 9 12 8 7 12 11 9 10 7 9 6 7 4 4 4 3 4 6 7 7 6 6 7 6 6 4 2 2 3 4 5 5 6 7 8 9 9 6 14 14 13 17
11 13 10 6 8 9 12 13 11 11 8 8 5 5 4 4 3 5 6 4 4 3 6 6 6 7 8 6 4 2 4 4 5 5 6 6 7 8 8 10 11 9 15 16
6 6 8 11 10 8 8 7 10 9 6 8 6 6 6 5 6 6 5 5 2 5 7 7 7 7 9 7 6 6 5 5 5 5 6 7 7 7 8 9 9 9 7 14
5 8 8 11 9 7 5 7 9 7 6 4 6 7 6 2 4 4 5 7 6 7 6 7 8 10 10 7 7 6 5 5 6 5 6 7 7 7 8 9 9 9 9 10
2 6 5 7 7 7 9 7 7 6 5 5 6 6 5 2 3 6 7 6 4 6 7 8 9 9 9 8 8 6 6 5 7 5 6 6 7 8 8 9 10 10 10 10
10 9 10 8 6 7 7 7 7 5 5 4 4 4 6 7 4 5 6 5 3 4 9 9 10 10 8 8 7 6 6 5 5 6 6 6 7 7 8 9 10 10 8 6
11 11 10 9 7 7 6 6 5 5 5 5 4 5 3 4 4 5 5 5 7 6 10 10 13 10 9 9 9 5 6 7 6 6 6 6 6 7 7 7 8 7 5 3
10 8 8 8 8 7 6 5 4 5 5 5 3 4 4 5 5 6 3 5 5 3 9 9 10 9 8 8 9 5 5 6 6 6 6 6 7 8 7 8 9 7 6 6
7 6 7 7 7 7 7 6 5 5 5 4 5 4 4 5 4 4 1 1 7 7 8 8 7 7 7 8 7 6 5 6 6 6 6 7 7 7 8 7 7 6 6 6
5 5 6 5 3 3 5 5 5 4 4 4 3 3 5 5 6 6 0 3 7 9 7 6 6 9 9 10 6 6 6 6 6 6 7 7 7 8 8 8 8 7 7 7
4 4 4 5 5 4 4 4 5 4 5 5 5 6 4 4 4 4 3 2 7 8 7 6 10 11 11 7 6 5 6 6 6 6 7 7 8 8 8 8 7 7 7 7
3 4 3 4 2 1 3 5 5 4 3 5 4 3 3 4 4 2 3 7 8 8 7 7 9 12 10 5 5 5 6 6 5 5 6 7 7 7 8 8 8 7 7 8
3 3 3 3 2 2 3 4 5 3 5 5 5 3 3 3 4 4 6 7 9 8 7 8 10 9 5 5 5 5 6 5 6 5 6 6 6 7 7 7 7 7 7 7
3 3 3 3 3 3 3 4 4 4 4 5 5 3 3 3 4 5 5 6 6 6 6 6 6 6 6 6 6 6 6 6 6 6 6 6 6 6 7 7 7 6 6 6
3 3 3 3 2 2 3 3 4 5 3 3 6 6 4 5 5 5 5 5 5 5 5 5 5 6 6 6 6 6 6 6 6 6 6 6 6 6 6 6 6 5 5 5
Wind_Direction
206 148 176 196 198 193 202 225 215 240 247 236 246 255 280 294 279 276 271 247 253 253 235 226 221 212 205 210 196 194 196 207 212 187 174 151 155 151 139 154 148 159 153 147
116 145 171 184 196 201 210 221 229 245 257 255 255 236 249 264 267 268 277 268 252 241 237 227 221 215 203 210 201 188 199 202 179 165 148 154 147 149 143 147 144 159 165 151
217 109 109 287 215 200 211 218 219 234 240 262 243 238 240 238 248 247 260 264 265 254 247 230 215 208 212 205 185 194 193 176 168 164 166 162 155 153 157 160 156 156 162 161
111 131 221 261 190 206 212 221 228 248 255 238 239 248 263 246 249 254 255 271 279 278 261 235 219 206 212 189 181 181 190 179 178 173 168 161 162 169 163 168 170 165 159 167
171 212 275 257 173 169 188 245 223 233 248 244 237 279 265 242 224 238 271 313 295 299 286 263 216 202 180 178 180 191 199 190 184 179 174 172 176 175 170 167 168 172 167 167
159 214 233 112 174 149 140 262 212 224 248 219 176 232 248 138 134 93 47 21 337 315 283 262 232 169 168 183 188 212 201 196 184 182 178 182 181 177 173 173 166 161 163 173
200 226 261 234 175 155 193 285 199 206 246 205 203 214 58 82 68 17 91 26 342 322 303 300 233 163 191 185 213 213 189 180 183 186 186 182 173 170 161 161 151 159 165 166
204 229 248 159 164 184 220 124 143 149 275 189 174 114 92 58 24 33 39 40 10 346 345 337 339 174 191 220 217 164 163 173 183 186 182 173 172 164 167 165 166 168 167 167
196 209 108 187 124 62 59 145 150 140 199 158 133 126 108 89 26 23 27 14 2 15 1 12 355 276 219 239 165 159 162 179 180 174 174 175 174 169 166 171 173 174 176 177
149 182 182 163 106 107 105 119 116 123 142 138 122 117 96 81 60 45 20 6 345 13 26 3 350 328 280 259 157 157 175 177 170 174 174 177 181 180 182 182 181 178 182 188
196 89 90 131 147 136 112 109 102 67 45 103 111 91 94 84 54 47 30 344 3 27 6 2 345 341 342 303 158 165 160 163 173 181 182 183 196 191 196 199 196 188 192 183
210 165 144 147 148 141 130 126 123 114 81 45 79 95 93 81 61 40 22 353 13 25 15 359 351 344 340 325 230 167 177 190 196 187 185 189 189 187 213 206 204 203 193 188
167 116 97 113 112 115 119 121 113 101 93 103 53 74 73 88 58 46 40 18 16 7 359 355 354 350 346 324 270 226 226 211 204 197 204 196 197 195 187 196 201 201 196 194
100 110 97 140 130 118 111 109 95 87 80 73 64 56 86 92 93 60 39 2 354 33 24 7 6 358 343 329 304 272 252 239 219 221 211 208 212 214 207 195 190 191 204 194
25 28 105 111 96 89 105 117 99 93 84 65 44 53 37 55 53 34 15 353 16 54 20 3 360 360 349 338 314 290 255 249 233 233 223 219 215 218 221 215 210 197 180 201
33 74 87 98 97 86 98 62 87 81 57 62 44 39 14 38 54 37 29 19 43 27 5 6 7 346 339 344 329 310 288 268 245 243 234 228 220 220 221 219 219 215 207 200
163 91 64 67 77 73 71 58 70 78 75 34 23 352 20 51 39 26 18 11 39 58 27 16 350 342 348 355 337 312 303 291 249 246 243 238 235 232 231 228 227 224 216 205
56 60 52 60 98 106 81 60 60 58 48 1 5 34 38 41 32 348 352 341 51 71 36 4 343 346 350 351 341 325 310 295 273 254 255 246 244 241 240 240 238 237 232 223
33 51 51 54 46 87 85 74 60 58 31 10 34 50 54 32 359 341 342 34 30 13 0 345 339 343 349 343 344 331 323 314 301 287 279 276 262 257 254 251 251 255 258 225
43 43 51 59 47 48 76 49 43 57 31 20 14 39 25 18 355 341 349 78 60 353 317 329 330 337 336 337 341 329 322 314 301 292 284 275 268 263 252 245 246 241 227 216
36 34 45 42 50 44 40 28 16 38 10 26 29 21 339 314 338 325 341 308 16 353 333 324 341 341 334 336 330 330 325 319 313 304 297 291 288 276 272 267 258 251 249 241
8 16 27 21 31 49 26 17 19 4 7 12 16 354 339 355 350 352 248 32 332 339 332 337 335 329 318 326 329 329 328 322 314 308 300 295 290 286 281 276 268 264 255 247
353 2 13 16 3 352 334 19 5 354 347 360 352 351 347 326 318 314 325 5 331 328 325 321 320 317 331 325 321 319 319 315 308 301 297 296 294 290 285 284 281 277 272 262
339 7 358 336 311 335 7 355 338 328 309 301 293 282 298 324 316 216 292 301 292 303 310 310 319 326 339 323 320 317 312 308 302 299 295 292 289 290 287 288 285 282 277 274
335 327 306 333 326 6 322 334 313 315 330 318 306 284 236 234 254 307 308 305 306 317 314 313 318 324 317 313 311 310 309 307 306 304 299 295 293 293 291 291 287 286 285 280
309 307 315 311 289 324 329 330 312 315 322 325 315 304 306 295 275 273 284 290 298 305 306 314 313 314 313 314 313 311 308 307 309 305 302 297 297 295 298 296 293 289 284 279
306 291 309 308 246 258 284 276 282 292 288 267 277 285 297 303 297 294 297 303 305 305 303 307 307 308 307 307 303 303 301 301 300 307 306 303 302 300 298 294 292 289 284 274